Weather in Akhtarskiy

Russia / Krasnodar Krai     46°00′15″N   38°20′51″E
temp.,
°C
wind,
m/s
gust,
m/s
humid.,
%
clouds,
%
prec.,
mm/h
press.,
hPa
HPBL,
m
16 may, sun
sun1600:00+16nne34745 0.1 101256
03:00+16ne477365 0.1 101196
06:00+16ne3572100 0.1 101191
09:00+21ene576531 0.1 1009296
12:00+26ene566550 0.0 1008779
15:00+27ene566027 0.0 10061057
18:00+24ene58700 0.0 1004465
21:00+20ene49861 0.0 1003155
17 may, mon
mon1700:00+19e411851 0.0 1002182
03:00+17ese44909 0.6 100361
06:00+19s51282100 0.0 1004523
09:00+21ssw6866100 0.0 1006507
12:00+22sw7863100 0.0 1007878
15:00+22sw786298 0.0 1008956
18:00+19wsw577599 0.0 1008448
21:00+16sw4991100 0.0 1010254
18 may, tue
tue1800:00+14ssw3593100 0.0 1011191
03:00+14sw3893100 0.0 1010233
06:00+14ssw3793100 0.0 1011237
09:00+19ssw566668 0.0 1011832
12:00+22sw675615 0.0 10111529
15:00+22wsw78580 0.1 10111082
18:00+19w5769100 0.0 1011449
21:00+16sw358327 0.0 1011104
19 may, wed
wed1900:00+16sw51087100 0.1 1011641
03:00+14w5893100 7.9 1011525
06:00+14sw611880 0.3 1012526
09:00+16wsw810710 0.3 10141131
12:00+18w89620 0.0 10161095
15:00+19w58530 0.0 10171107
18:00+19sw35560 0.0 1016845
21:00+14sw33740 0.0 101747
20 may, thu
thu2000:00+13ssw22880 0.0 101627
03:00+12ese22885 0.0 101629
06:00+13e37895 0.0 1015163
09:00+19e610670 0.0 1014624
12:00+23e89625 0.0 10121035
15:00+25e89575 0.0 10101132
18:00+23e7127184 0.0 1008813
21:00+20e5137691 0.0 1007382